| time (UTC) | temp F | wind direction | speed MPH | gust MPH | rain 1hr in | rain 24hr in | rain mn in | humidity % | barometer mb |
| 20260903220015 | 86 | 56 | 1.0 | 6.0 | 0.00 | 0.03 | 0.02 | 76 | 1013.0 |
| 20260903214551 | 87 | 98 | 2.0 | 5.0 | 0.00 | 0.03 | 0.02 | 75 | 1013.1 |
| 20260903213003 | 88 | 96 | 3.0 | 7.0 | 0.00 | 0.03 | 0.02 | 73 | 1013.0 |
| 20260903211601 | 88 | 90 | 1.0 | 6.0 | 0.00 | 0.03 | 0.02 | 74 | 1013.0 |
| 20260903210013 | 87 | 92 | 1.0 | 6.0 | 0.00 | 0.03 | 0.02 | 73 | 1013.0 |
| 20260903204548 | 85 | 95 | 3.0 | 7.0 | 0.00 | 0.03 | 0.02 | 77 | 1013.3 |
| 20260903203010 | 86 | 59 | 1.0 | 8.0 | 0.00 | 0.03 | 0.02 | 76 | 1013.5 |
| 20260903201539 | 87 | 112 | 2.0 | 5.0 | 0.00 | 0.03 | 0.02 | 74 | 1013.8 |
| 20260903200109 | 87 | 77 | 0.0 | 5.0 | 0.00 | 0.03 | 0.02 | 76 | 1013.8 |
| 20260903194541 | 86 | 57 | 1.0 | 5.0 | 0.00 | 0.03 | 0.02 | 75 | 1013.9 |
| 20260903193004 | 85 | 106 | 4.0 | 12.0 | 0.00 | 0.03 | 0.02 | 78 | 1014.2 |
| 20260903191540 | 85 | 107 | 2.0 | 11.0 | 0.01 | 0.03 | 0.02 | 79 | 1014.2 |
| 20260903190010 | 84 | 102 | 3.0 | 7.0 | 0.01 | 0.03 | 0.02 | 81 | 1014.3 |
| 20260903184557 | 83 | 86 | 2.0 | 7.0 | 0.01 | 0.03 | 0.02 | 86 | 1014.5 |
| 20260903183009 | 81 | 117 | 2.0 | 6.0 | 0.01 | 0.03 | 0.02 | 88 | 1014.8 |
| 20260903181544 | 81 | 107 | 2.0 | 6.0 | 0.00 | 0.02 | 0.01 | 91 | 1014.9 |
| 20260903180111 | 81 | 119 | 2.0 | 6.0 | 0.00 | 0.02 | 0.01 | 90 | 1015.0 |
| 20260903174539 | 80 | 107 | 0.0 | 6.0 | 0.00 | 0.02 | 0.01 | 91 | 1015.0 |
| 20260903173005 | 79 | 122 | 0.0 | 4.0 | 0.00 | 0.02 | 0.01 | 91 | 1015.1 |
| 20260903171559 | 80 | 115 | 2.0 | 7.0 | 0.00 | 0.02 | 0.01 | 88 | 1015.4 |
| 20260903170008 | 82 | 131 | 2.0 | 9.0 | 0.00 | 0.02 | 0.01 | 83 | 1015.5 |
| 20260903164600 | 85 | 105 | 0.0 | 0.0 | 0.00 | 0.02 | 0.01 | 80 | 1015.6 |
| 20260903163023 | 86 | 97 | 3.0 | 9.0 | 0.00 | 0.02 | 0.01 | 78 | 1015.7 |
| 20260903161556 | 86 | 107 | 2.0 | 5.0 | 0.00 | 0.02 | 0.01 | 80 | 1015.7 |
| 20260903160024 | 83 | 71 | 1.0 | 6.0 | 0.00 | 0.02 | 0.01 | 82 | 1016.0 |
| 20260903154603 | 83 | 59 | 1.0 | 4.0 | 0.01 | 0.02 | 0.01 | 83 | 1015.9 |
| 20260903153024 | 85 | 65 | 3.0 | 10.0 | 0.01 | 0.02 | 0.01 | 78 | 1015.9 |
| 20260903151556 | 86 | 115 | 3.0 | 11.0 | 0.01 | 0.02 | 0.01 | 77 | 1015.6 |
| 20260903150029 | 85 | 83 | 2.0 | 12.0 | 0.01 | 0.02 | 0.01 | 78 | 1015.8 |
| 20260903144614 | 84 | 101 | 2.0 | 6.0 | 0.00 | 0.01 | 0.00 | 79 | 1015.6 |
| 20260903143047 | 83 | 71 | 0.0 | 2.0 | 0.00 | 0.01 | 0.00 | 86 | 1015.6 |
| 20260903141511 | 83 | 116 | 1.0 | 4.0 | 0.00 | 0.01 | 0.00 | 86 | 1015.7 |
| 20260903140052 | 82 | 113 | 2.0 | 4.0 | 0.00 | 0.01 | 0.00 | 88 | 1015.8 |
| 20260903134521 | 81 | 111 | 1.0 | 4.0 | 0.00 | 0.01 | 0.00 | 89 | 1015.8 |
| 20260903133058 | 81 | 101 | 1.0 | 6.0 | 0.00 | 0.01 | 0.00 | 90 | 1015.8 |
| 20260903131514 | 80 | 74 | 0.0 | 4.0 | 0.00 | 0.01 | 0.00 | 95 | 1015.8 |
| 20260903130125 | 78 | 63 | 0.0 | 2.0 | 0.00 | 0.01 | 0.00 | 96 | 1015.8 |
| 20260903124530 | 77 | 78 | 1.0 | 2.0 | 0.00 | 0.01 | 0.00 | 97 | 1015.7 |
| 20260903123100 | 77 | 79 | 0.0 | 2.0 | 0.00 | 0.01 | 0.00 | 97 | 1015.8 |
| 20260903121532 | 76 | 58 | 0.0 | 2.0 | 0.00 | 0.01 | 0.00 | 97 | 1015.6 |
| 20260903120123 | 76 | 58 | 0.0 | 2.0 | 0.00 | 0.01 | 0.00 | 97 | 1015.5 |
| 20260903114534 | 76 | 5 | 0.0 | 2.0 | 0.00 | 0.01 | 0.00 | 97 | 1015.3 |
| 20260903113104 | 76 | 5 | 0.0 | 0.0 | 0.00 | 0.01 | 0.00 | 97 | 1015.1 |
| 20260903111527 | 76 | 98 | 0.0 | 0.0 | 0.00 | 0.01 | 0.00 | 96 | 1014.9 |
| 20260903110056 | 76 | 98 | 0.0 | 0.0 | 0.00 | 0.01 | 0.00 | 96 | 1014.5 |
| 20260903104521 | 75 | 98 | 0.0 | 0.0 | 0.00 | 0.01 | 0.00 | 96 | 1014.4 |
| 20260903103056 | 75 | 98 | 0.0 | 0.0 | 0.00 | 0.01 | 0.00 | 96 | 1014.4 |
| 20260903101517 | 75 | 98 | 0.0 | 0.0 | 0.00 | 0.01 | 0.00 | 96 | 1014.3 |
| 20260903100055 | 75 | 98 | 0.0 | 0.0 | 0.00 | 0.01 | 0.00 | 96 | 1014.2 |
| 20260903094530 | 75 | 98 | 0.0 | 0.0 | 0.00 | 0.01 | 0.00 | 96 | 1014.0 |
| 20260903093101 | 75 | 98 | 0.0 | 0.0 | 0.00 | 0.01 | 0.00 | 96 | 1014.1 |
| 20260903091526 | 75 | 98 | 0.0 | 0.0 | 0.00 | 0.01 | 0.00 | 96 | 1014.1 |
| 20260903090111 | 75 | 98 | 0.0 | 0.0 | 0.00 | 0.01 | 0.00 | 96 | 1014.2 |
| 20260903084538 | 75 | 98 | 0.0 | 0.0 | 0.00 | 0.01 | 0.00 | 96 | 1014.2 |
| 20260903083010 | 74 | 98 | 0.0 | 0.0 | 0.00 | 0.01 | 0.00 | 96 | 1014.5 |
| 20260903081547 | 74 | 98 | 0.0 | 0.0 | 0.00 | 0.01 | 0.00 | 96 | 1014.4 |
| 20260903080011 | 74 | 98 | 0.0 | 0.0 | 0.00 | 0.01 | 0.00 | 96 | 1014.4 |
| 20260903074541 | 74 | 98 | 0.0 | 0.0 | 0.00 | 0.01 | 0.00 | 95 | 1014.4 |
| 20260903073008 | 74 | 98 | 0.0 | 0.0 | 0.00 | 0.01 | 0.00 | 95 | 1014.5 |
| 20260903071548 | 74 | 98 | 0.0 | 0.0 | 0.00 | 0.01 | 0.00 | 95 | 1014.6 |
| 20260903070104 | 74 | 98 | 0.0 | 0.0 | 0.00 | 0.01 | 0.00 | 95 | 1014.8 |
| 20260903064530 | 74 | 98 | 0.0 | 0.0 | 0.00 | 0.01 | 0.00 | 95 | 1014.7 |
| 20260903061524 | 75 | 98 | 0.0 | 0.0 | 0.00 | 0.01 | 0.00 | 95 | 1015.1 |
| 20260903060146 | 75 | 98 | 0.0 | 0.0 | 0.00 | 0.01 | 0.00 | 95 | 1015.3 |
| 20260903054529 | 75 | 98 | 0.0 | 0.0 | 0.00 | 0.01 | 0.00 | 95 | 1015.5 |
| 20260903053103 | 75 | 98 | 0.0 | 0.0 | 0.00 | 0.01 | 0.00 | 94 | 1015.6 |
| 20260903051537 | 75 | 98 | 0.0 | 0.0 | 0.00 | 0.01 | 0.00 | 94 | 1015.6 |
| 20260903050008 | 76 | 98 | 0.0 | 0.0 | 0.00 | 0.01 | 0.00 | 94 | 1015.5 |
| 20260903044551 | 76 | 98 | 0.0 | 0.0 | 0.00 | 0.01 | 0.00 | 94 | 1015.5 |
| 20260903043022 | 76 | 98 | 0.0 | 0.0 | 0.00 | 0.01 | 0.00 | 94 | 1015.4 |
| 20260903041546 | 75 | 98 | 0.0 | 0.0 | 0.00 | 0.01 | 0.00 | 94 | 1015.4 |
| 20260903040015 | 75 | 98 | 0.0 | 0.0 | 0.00 | 0.01 | 0.00 | 94 | 1015.5 |
| 20260903034554 | 75 | 98 | 0.0 | 0.0 | 0.00 | 0.01 | 0.01 | 93 | 1015.6 |
| 20260903033032 | 75 | 98 | 0.0 | 0.0 | 0.00 | 0.01 | 0.01 | 93 | 1015.5 |
| 20260903031611 | 76 | 98 | 0.0 | 0.0 | 0.00 | 0.01 | 0.01 | 93 | 1015.7 |
| 20260903030036 | 76 | 98 | 0.0 | 1.0 | 0.00 | 0.01 | 0.01 | 92 | 1015.8 |
| 20260903024609 | 76 | 98 | 0.0 | 0.0 | 0.00 | 0.01 | 0.01 | 92 | 1016.0 |
| 20260903023045 | 76 | 98 | 0.0 | 2.0 | 0.00 | 0.01 | 0.01 | 91 | 1015.9 |
| 20260903021608 | 77 | 98 | 0.0 | 0.0 | 0.00 | 0.01 | 0.01 | 90 | 1015.9 |
| 20260903020028 | 77 | 98 | 0.0 | 0.0 | 0.00 | 0.01 | 0.01 | 90 | 1016.0 |
| 20260903014610 | 77 | 98 | 0.0 | 2.0 | 0.00 | 0.01 | 0.01 | 89 | 1015.9 |
| 20260903013046 | 77 | 98 | 0.0 | 2.0 | 0.00 | 0.01 | 0.01 | 89 | 1015.8 |
| 20260903011600 | 78 | 98 | 0.0 | 2.0 | 0.00 | 0.01 | 0.01 | 89 | 1015.7 |
| 20260903010040 | 78 | 98 | 0.0 | 2.0 | 0.00 | 0.01 | 0.01 | 88 | 1015.8 |
| 20260903004601 | 78 | 117 | 1.0 | 4.0 | 0.00 | 0.01 | 0.01 | 88 | 1015.5 |
| 20260903003022 | 79 | 108 | 2.0 | 4.0 | 0.00 | 0.01 | 0.01 | 87 | 1015.4 |
| 20260903001614 | 79 | 82 | 0.0 | 4.0 | 0.00 | 0.01 | 0.01 | 87 | 1015.6 |
| 20260903000027 | 79 | 90 | 1.0 | 3.0 | 0.00 | 0.01 | 0.01 | 90 | 1015.4 |
| 20260902234621 | 79 | 136 | 1.0 | 2.0 | 0.00 | 0.01 | 0.01 | 90 | 1015.3 |
| 20260902233014 | 79 | 115 | 0.0 | 2.0 | 0.00 | 0.01 | 0.01 | 89 | 1015.3 |
| 20260902231544 | 79 | 115 | 0.0 | 3.0 | 0.00 | 0.01 | 0.01 | 89 | 1015.4 |
| 20260902230006 | 79 | 114 | 0.0 | 4.0 | 0.01 | 0.01 | 0.01 | 89 | 1015.4 |
| 20260902224545 | 79 | 101 | 4.0 | 8.0 | 0.01 | 0.01 | 0.01 | 89 | 1015.2 |
| 20260902223011 | 79 | 103 | 2.0 | 8.0 | 0.01 | 0.01 | 0.01 | 89 | 1015.1 |
| 20260902221546 | 80 | 107 | 3.0 | 11.0 | 0.01 | 0.01 | 0.01 | 86 | 1015.3 |